Orbital Elements
The following improved orbital elements by Kenji Muraoka, are
from 90 observations 1997 Aug. 12 to Sept. 30, perturbations
by 9 Planets, Moon and 5 minor planets were taken into account.
The mean residual is +/- 0.63 arc seconds.
Epoch = 1997 Aug. 20.0 TT JDT = 2450680.5
T = 1997 Aug. 31.12099 +/- 0.77531 (m.e.) TT
Peri. = 24.49517 +/- 0.18312
Node = 302.91720 +/- 0.22980 (2000.0)
Incl. = 14.58375 +/- 0.05987
q = 4.2633919 +/- 0.0011667 AU
e = 1.0284013 +/- 0.0000916
1/a = -0.0066617 +/- 0.0000216 1/AU
orig. 1/a = -0.0000311
fut. 1/a = -0.0023503
|